CZ-6A DEB, 56635

Orbit data source: Space-Track

CZ-6A DEB, 56635 is space debris in SSO originally from a launch on Fri, 11 Nov 2022 UTC launched from the Taiyaun Space Center, China (TSC). Debris objects in space refer to the collection of defunct objects orbiting the Earth. Examples of debris include non-operational satellites, rocket bodies, and fragments generated from explosions, collisions, or faulty payload assembly.

Loading next visibility...
Identifier
56635, 2022-151AFK
Orbit
SSO
Country
Flag of CNCN / PRC
Related business
Manufacturer
SAST
Mission
Spacecraft
Bus & Motor
Unknown
Mass
Unknown
Launch date (UTC)
2022-11-11 (3 years ago)
Launch vehicle
Unknown
Launch site
Taiyaun Space Center, China (TSC)
Object type
Payload
Rocket body
Debris
Shape & HBR
Unknown shape, 0.1 m
Radar Cross Section
Small (<0.1 m²)

Expand to show TLE details & history
Last TLE update: 2 days ago

TLE from 2 days ago
0 CZ-6A DEB
1 56635U 22151AFK 25348.31569860  .00000938  00000-0  45698-3 0  9991
2 56635  98.7562 355.8389 0030522 156.6521 203.6049 14.20312935136748
Epoch: 2025-12-14T07:34Z
TLE epoch observation values (Epoch: 2025-12-14T07:34:36.359Z)
Latitude
-0.00002°
Longitude
158.95703°
Altitude
847.367 km
Speed
7.419 km/s
True Right ascension
23h 43m 21s
True Declination
0° 00' 00"
Sunlit
Object was in daylight at epoch
Visualization orbit readout
Latitude
Unknown
Longitude
Unknown
Altitude
Unknown
Speed
Unknown
Apparent Right ascension
Unknown
Apparent Declination
Unknown
Sunlit
N/A
Visualization observer readout
Local Sidereal Time
11:31:07
Azimuth
Unknown
Elevation
Unknown
Doppler factor
Unknown
Orbital elements
Apogee altitude
843.43 km
Perigee altitude
799.48 km
Semi-major axis
7,199.592 km
Eccentricity
0.00305
Inclination
98.7562°
RAAN
355.8389°
Arg. of periapsis
156.6521°
True anomaly
203.46534°
Mean anomaly
203.6049°
Eccentric anomaly
203.53507°
Mean motion
3.55289 °/min
Orbital period
101.33 mins
BSTAR
0.00045698
Loading maneuver chart data...
Computing Atmospheric mass density...
Loading historical data...
Loading historical data...
Loading historical data...
Loading historical data...
Loading historical data...
Loading historical data...
Loading historical data...

Documentation

Showing up to 5 results
|